TimeMST,TemperatureF,Dew PointF,Humidity,Sea Level PressureIn,VisibilityMPH,Wind Direction,Wind SpeedMPH,Gust SpeedMPH,PrecipitationIn,Events,Conditions,WindDirDegrees,DateUTC
12:56 AM,-0.9,-5.1,83,30.10,10.0,ESE,5.8,-,N/A,,Clear,120,2012-12-19 07:56:00
1:56 AM,6.1,-2.0,69,30.07,10.0,Calm,Calm,-,N/A,,Overcast,0,2012-12-19 08:56:00
2:56 AM,5.0,-2.0,73,30.09,10.0,SE,3.5,-,N/A,,Mostly Cloudy,140,2012-12-19 09:56:00
3:56 AM,3.9,-2.9,73,30.12,10.0,SE,6.9,-,N/A,,Overcast,140,2012-12-19 10:56:00
4:56 AM,3.0,-4.0,73,30.14,10.0,SSE,5.8,-,N/A,,Scattered Clouds,160,2012-12-19 11:56:00
5:56 AM,7.0,-2.0,67,30.14,10.0,Calm,Calm,-,N/A,,Overcast,0,2012-12-19 12:56:00
6:56 AM,5.0,-2.9,70,30.19,10.0,Calm,Calm,-,N/A,,Overcast,0,2012-12-19 13:56:00
7:56 AM,3.9,-0.9,80,30.21,10.0,SE,3.5,-,N/A,,Overcast,140,2012-12-19 14:56:00
8:56 AM,3.0,-2.0,80,30.24,10.0,Calm,Calm,-,N/A,,Clear,0,2012-12-19 15:56:00
9:56 AM,3.0,-4.0,73,30.27,9.0,SE,3.5,-,0.00,,Clear,130,2012-12-19 16:56:00
10:56 AM,9.0,-0.0,67,30.29,10.0,NNE,3.5,-,N/A,,Clear,30,2012-12-19 17:56:00
11:56 AM,14.0,-0.0,54,30.26,10.0,Calm,Calm,-,N/A,,Clear,0,2012-12-19 18:56:00
12:56 PM,16.0,1.9,54,30.27,10.0,Calm,Calm,-,N/A,,Clear,0,2012-12-19 19:56:00
1:56 PM,19.0,3.0,50,30.24,10.0,Calm,Calm,-,N/A,,Clear,0,2012-12-19 20:56:00
2:56 PM,19.0,1.9,47,30.24,10.0,ENE,8.1,-,N/A,,Clear,70,2012-12-19 21:56:00
3:56 PM,17.1,1.0,50,30.26,10.0,ENE,8.1,-,N/A,,Clear,70,2012-12-19 22:56:00
4:56 PM,15.1,-0.9,49,30.27,10.0,ENE,5.8,-,N/A,,Clear,60,2012-12-19 23:56:00
5:56 PM,12.0,-0.9,56,30.28,10.0,SSE,5.8,-,N/A,,Clear,160,2012-12-20 00:56:00
6:56 PM,7.0,-2.9,64,30.32,10.0,SSE,8.1,-,N/A,,Clear,160,2012-12-20 01:56:00
7:56 PM,8.1,-2.9,61,30.34,10.0,SE,4.6,-,N/A,,Partly Cloudy,130,2012-12-20 02:56:00
8:56 PM,3.9,-4.0,70,30.35,10.0,SE,6.9,-,N/A,,Partly Cloudy,130,2012-12-20 03:56:00
9:56 PM,3.9,-2.9,73,30.36,10.0,SSE,10.4,-,N/A,,Clear,150,2012-12-20 04:56:00
10:56 PM,3.0,-6.0,66,30.35,10.0,Calm,Calm,-,N/A,,Partly Cloudy,0,2012-12-20 05:56:00
11:56 PM,1.9,-5.1,72,30.36,10.0,East,3.5,-,N/A,,Clear,90,2012-12-20 06:56:00